Meath Environmental Platform

Observations for Trim Patrick St

Time AQI Temp °C Hum % Pres Pa CO μg/m³ H₂S μg/m³ NO μg/m³ NO₂ μg/m³ O₃ μg/m³ SO₂ μg/m³ PM1 μg/m³ PM2.5 μg/m³ PM10 μg/m³
Monday 3 August 2026
20:05 4 21.1 59 74,717 0 24.59 0.92 58.87 51.21 5.26 4.57 9.54 10.49
20:04 4 21.1 61 74,646 0 23.38 0.88 57.85 50.61 5.7 3.71 7.92 8.71
20:03 4 21.2 61 74,575 0 23.88 0.86 55.81 54.71 5.56 3.71 7.93 8.73
20:02 4 21.2 61 74,507 0 22.67 0.89 48.72 47.24 5.9 5.43 10.19 11.21
20:01 4 21.3 61 74,438 0 25.99 0.9 55.37 48.73 6.37 5.43 9.43 10.37
20:00 4 21.3 59 74,342 0 24.59 0.87 58.81 51.26 5.17 4.57 9.57 10.52
19:59 4 21.4 58 74,231 0 29.32 0.74 66 65.43 6.89 2.86 8.12 8.93
19:58 4 21.4 58 74,074 0 27.87 0.81 68.11 53.55 6.23 2 7.43 8.17
19:57 4 21.4 58 73,901 0 27.13 0.81 60.47 68.32 6.44 2.86 7.39 8.13
19:56 4 21.5 58 73,730 0 26.57 0.68 54.47 59.03 6.95 2.86 7.43 8.17
19:55 4 21.5 58 73,548 0 26.26 0.69 58.46 54.34 6.83 3.71 8.92 9.81
19:54 4 21.6 56 73,349 0 24.7 0.68 58.94 54.01 6.23 3.71 9 9.9
19:53 4 21.6 54 73,190 0 24.52 0.74 55.67 57.59 5.21 3.71 9.22 10.14
19:52 4 21.7 55 73,019 0 25.36 0.75 51.51 58.41 6.03 4.57 9.14 10.05
19:51 4 21.7 55 72,797 0 30.69 0.74 69.41 62.84 7.26 4.57 9.84 10.82
19:50 4 21.8 59 72,459 0 31.36 0.58 70.53 57.08 7.7 3.71 8.09 8.9
19:49 4 21.8 55 72,116 0 27.05 0.75 61.82 52.35 6.25 3.71 8.36 9.2
19:48 4 21.9 57 71,846 0 29.19 0.68 65.49 68.17 7.41 2.86 7.46 8.21
19:47 4 21.9 57 71,548 0 29.06 0.59 94.29 32.82 6.7 5.43 9.71 10.68
19:46 4 22 57 71,250 0 25.39 0.79 60.66 48.19 7.02 4.57 10.47 11.52